| time (UTC) | temp F | wind direction | speed knots | gust knots | rain 1hr in | rain 24hr in | rain mn in | humidity % | barometer mb |
| 20260504000511 | 58 | 337 | 4.3 | 9.6 | 0.13 | 0.83 | 0.60 | 100 | 1014.4 |
| 20260504000022 | 58 | 340 | 5.2 | 9.6 | 0.14 | 0.83 | 0.60 | 100 | 1014.4 |
| 20260503235522 | 58 | 336 | 7.0 | 15.6 | 0.14 | 0.83 | 0.60 | 100 | 1014.5 |
| 20260503235013 | 58 | 333 | 7.0 | 15.6 | 0.14 | 0.83 | 0.60 | 100 | 1014.4 |
| 20260503234512 | 59 | 329 | 6.1 | 12.2 | 0.14 | 0.83 | 0.60 | 99 | 1014.2 |
| 20260503234013 | 59 | 327 | 5.2 | 8.7 | 0.13 | 0.83 | 0.60 | 99 | 1014.4 |
| 20260503233511 | 59 | 334 | 5.2 | 8.7 | 0.13 | 0.83 | 0.59 | 98 | 1014.5 |
| 20260503233022 | 59 | 345 | 6.1 | 8.7 | 0.11 | 0.81 | 0.57 | 98 | 1014.4 |
| 20260503232521 | 59 | 344 | 6.1 | 9.6 | 0.11 | 0.81 | 0.57 | 97 | 1014.4 |
| 20260503232023 | 59 | 332 | 6.1 | 11.3 | 0.08 | 0.78 | 0.55 | 97 | 1014.6 |
| 20260503231522 | 59 | 319 | 7.0 | 12.2 | 0.07 | 0.77 | 0.53 | 98 | 1014.6 |
| 20260503231012 | 59 | 333 | 6.1 | 12.2 | 0.02 | 0.71 | 0.48 | 98 | 1014.6 |
| 20260503230522 | 59 | 338 | 7.0 | 12.2 | 0.01 | 0.71 | 0.47 | 98 | 1014.6 |
| 20260503230022 | 59 | 340 | 7.8 | 12.2 | 0.12 | 0.70 | 0.46 | 98 | 1014.5 |
| 20260503225511 | 59 | 342 | 8.7 | 13.0 | 0.13 | 0.70 | 0.46 | 97 | 1014.5 |
| 20260503225012 | 59 | 337 | 7.8 | 13.0 | 0.12 | 0.68 | 0.44 | 97 | 1014.5 |
| 20260503224512 | 59 | 337 | 7.0 | 11.3 | 0.12 | 0.67 | 0.44 | 98 | 1014.5 |
| 20260503224012 | 59 | 346 | 7.0 | 13.9 | 0.12 | 0.67 | 0.43 | 98 | 1014.5 |
| 20260503223522 | 58 | 4 | 7.8 | 13.9 | 0.12 | 0.66 | 0.43 | 99 | 1014.5 |
| 20260503223022 | 59 | 11 | 6.1 | 10.4 | 0.11 | 0.66 | 0.42 | 97 | 1014.4 |
| 20260503222512 | 59 | 4 | 6.1 | 9.6 | 0.10 | 0.65 | 0.41 | 98 | 1014.3 |
| 20260503222035 | 58 | 354 | 6.1 | 8.7 | 0.09 | 0.63 | 0.40 | 98 | 1014.3 |
| 20260503221521 | 58 | 358 | 5.2 | 8.7 | 0.09 | 0.63 | 0.39 | 98 | 1014.3 |
| 20260503221012 | 58 | 4 | 7.0 | 10.4 | 0.08 | 0.63 | 0.39 | 98 | 1014.4 |
| 20260503220521 | 58 | 358 | 6.1 | 10.4 | 0.08 | 0.62 | 0.39 | 99 | 1014.2 |
| 20260503220022 | 58 | 353 | 4.3 | 7.8 | 0.04 | 0.58 | 0.34 | 99 | 1014.3 |
| 20260503215522 | 58 | 349 | 6.1 | 11.3 | 0.03 | 0.57 | 0.33 | 98 | 1014.4 |
| 20260503215012 | 58 | 351 | 5.2 | 11.3 | 0.02 | 0.56 | 0.32 | 99 | 1014.3 |
| 20260503214511 | 58 | 344 | 5.2 | 7.8 | 0.02 | 0.56 | 0.31 | 98 | 1014.4 |
| 20260503214016 | 58 | 341 | 6.1 | 11.3 | 0.01 | 0.55 | 0.31 | 99 | 1014.4 |
| 20260503213521 | 58 | 344 | 6.1 | 11.3 | 0.01 | 0.56 | 0.31 | 98 | 1014.3 |
| 20260503213022 | 58 | 350 | 7.0 | 11.3 | 0.01 | 0.57 | 0.31 | 100 | 1014.3 |
| 20260503212511 | 58 | 354 | 6.1 | 11.3 | 0.01 | 0.58 | 0.31 | 100 | 1014.2 |
| 20260503212022 | 57 | 350 | 5.2 | 11.3 | 0.01 | 0.59 | 0.31 | 100 | 1014.1 |
| 20260503211512 | 57 | 348 | 6.1 | 9.6 | 0.01 | 0.62 | 0.31 | 100 | 1014.2 |
| 20260503211021 | 57 | 339 | 4.3 | 9.6 | 0.01 | 0.62 | 0.31 | 100 | 1014.2 |
| 20260503210511 | 58 | 342 | 5.2 | 9.6 | 0.01 | 0.62 | 0.31 | 98 | 1014.1 |
| 20260503210022 | 58 | 351 | 4.3 | 8.7 | 0.01 | 0.62 | 0.31 | 97 | 1014.2 |
| 20260503205511 | 57 | 344 | 4.3 | 8.7 | 0.00 | 0.61 | 0.30 | 100 | 1014.0 |
| 20260503205022 | 57 | 342 | 4.3 | 8.7 | 0.00 | 0.61 | 0.30 | 100 | 1014.0 |
| 20260503204522 | 57 | 344 | 5.2 | 7.8 | 0.00 | 0.61 | 0.30 | 100 | 1014.0 |
| 20260503204012 | 57 | 346 | 5.2 | 7.0 | 0.00 | 0.61 | 0.30 | 100 | 1013.9 |
| 20260503203512 | 57 | 348 | 4.3 | 6.1 | 0.00 | 0.61 | 0.30 | 100 | 1013.9 |
| 20260503203023 | 57 | 348 | 5.2 | 9.6 | 0.00 | 0.61 | 0.30 | 100 | 1013.9 |
| 20260503202512 | 57 | 351 | 4.3 | 9.6 | 0.00 | 0.61 | 0.30 | 100 | 1013.9 |
| 20260503202023 | 57 | 355 | 4.3 | 7.8 | 0.00 | 0.61 | 0.30 | 100 | 1013.7 |
| 20260503201531 | 57 | 346 | 3.5 | 5.2 | 0.01 | 0.61 | 0.30 | 100 | 1013.7 |
| 20260503201011 | 57 | 343 | 2.6 | 5.2 | 0.02 | 0.61 | 0.30 | 100 | 1013.8 |
| 20260503200513 | 57 | 335 | 2.6 | 4.3 | 0.03 | 0.61 | 0.30 | 100 | 1013.8 |
| 20260503200012 | 57 | 332 | 4.3 | 7.8 | 0.04 | 0.61 | 0.30 | 100 | 1013.9 |
| 20260503195511 | 57 | 341 | 4.3 | 7.8 | 0.09 | 0.61 | 0.30 | 100 | 1013.8 |
| 20260503195012 | 57 | 347 | 3.5 | 6.1 | 0.11 | 0.61 | 0.30 | 100 | 1013.8 |
| 20260503194521 | 57 | 345 | 2.6 | 5.2 | 0.11 | 0.61 | 0.30 | 100 | 1013.8 |
| 20260503194013 | 57 | 332 | 3.5 | 6.1 | 0.11 | 0.61 | 0.30 | 100 | 1013.8 |
| 20260503193521 | 57 | 331 | 3.5 | 6.1 | 0.11 | 0.61 | 0.30 | 99 | 1014.0 |
| 20260503193022 | 57 | 329 | 2.6 | 4.3 | 0.11 | 0.61 | 0.30 | 99 | 1014.0 |
| 20260503192512 | 57 | 330 | 2.6 | 5.2 | 0.10 | 0.61 | 0.30 | 100 | 1013.9 |
| 20260503192022 | 57 | 331 | 3.5 | 6.1 | 0.10 | 0.61 | 0.29 | 99 | 1013.9 |
| 20260503191511 | 57 | 324 | 4.3 | 7.8 | 0.11 | 0.60 | 0.29 | 99 | 1013.9 |
| 20260503191022 | 57 | 328 | 5.2 | 7.8 | 0.11 | 0.60 | 0.28 | 99 | 1014.1 |
| 20260503190522 | 57 | 339 | 5.2 | 10.4 | 0.09 | 0.58 | 0.26 | 99 | 1014.2 |
| 20260503190045 | 57 | 342 | 5.2 | 10.4 | 0.08 | 0.57 | 0.26 | 99 | 1014.1 |
| 20260503185512 | 57 | 349 | 5.2 | 7.8 | 0.02 | 0.52 | 0.20 | 99 | 1014.2 |
| 20260503185012 | 57 | 344 | 4.3 | 7.8 | 0.01 | 0.50 | 0.19 | 100 | 1014.3 |
| 20260503184523 | 56 | 345 | 4.3 | 7.0 | 0.01 | 0.50 | 0.19 | 100 | 1014.2 |
| 20260503184021 | 57 | 337 | 2.6 | 5.2 | 0.01 | 0.50 | 0.19 | 100 | 1014.3 |
| 20260503183521 | 57 | 328 | 3.5 | 6.1 | 0.01 | 0.50 | 0.19 | 100 | 1014.3 |
| 20260503183014 | 58 | 336 | 3.5 | 6.1 | 0.01 | 0.50 | 0.19 | 97 | 1014.4 |
| 20260503182521 | 58 | 341 | 3.5 | 6.1 | 0.01 | 0.50 | 0.19 | 97 | 1014.5 |
| 20260503182012 | 58 | 339 | 4.3 | 7.0 | 0.01 | 0.50 | 0.19 | 97 | 1014.5 |
| 20260503181523 | 57 | 337 | 4.3 | 7.0 | 0.01 | 0.50 | 0.18 | 100 | 1014.6 |
| 20260503181022 | 57 | 320 | 4.3 | 7.8 | 0.01 | 0.49 | 0.18 | 100 | 1014.7 |
| 20260503180522 | 57 | 310 | 3.5 | 7.8 | 0.03 | 0.49 | 0.18 | 100 | 1014.6 |
| 20260503180012 | 57 | 319 | 4.3 | 7.8 | 0.04 | 0.49 | 0.18 | 100 | 1014.6 |
| 20260503175512 | 57 | 328 | 5.2 | 9.6 | 0.05 | 0.49 | 0.18 | 100 | 1014.7 |
| 20260503175012 | 58 | 337 | 6.1 | 9.6 | 0.05 | 0.49 | 0.18 | 97 | 1014.7 |
| 20260503174512 | 58 | 341 | 6.1 | 8.7 | 0.05 | 0.49 | 0.18 | 97 | 1014.6 |
| 20260503174022 | 57 | 348 | 5.2 | 8.7 | 0.05 | 0.49 | 0.18 | 100 | 1014.6 |
| 20260503173521 | 57 | 358 | 5.2 | 8.7 | 0.05 | 0.49 | 0.18 | 100 | 1014.7 |
| 20260503173012 | 57 | 7 | 5.2 | 8.7 | 0.06 | 0.49 | 0.18 | 100 | 1014.6 |
| 20260503172512 | 57 | 9 | 5.2 | 8.7 | 0.06 | 0.49 | 0.18 | 100 | 1014.7 |
| 20260503172022 | 58 | 355 | 6.1 | 9.6 | 0.06 | 0.49 | 0.18 | 97 | 1014.5 |
| 20260503171511 | 58 | 346 | 7.0 | 9.6 | 0.07 | 0.49 | 0.17 | 97 | 1014.7 |
| 20260503171012 | 58 | 345 | 5.2 | 7.8 | 0.06 | 0.48 | 0.17 | 97 | 1014.7 |
| 20260503170512 | 58 | 343 | 4.3 | 7.8 | 0.05 | 0.46 | 0.15 | 97 | 1014.9 |
| 20260503150512 | 58 | 349 | 7.8 | 12.2 | 0.06 | 0.37 | 0.06 | 94 | 1016.0 |
| 20260503131012 | 59 | 11 | 1.7 | 3.5 | 0.01 | 0.30 | 0.30 | 98 | 1016.4 |
| 20260503130512 | 59 | 8 | 1.7 | 3.5 | 0.01 | 0.30 | 0.30 | 98 | 1016.4 |
| 20260503110515 | 58 | 4 | 1.7 | 2.6 | 0.01 | 0.29 | 0.29 | 100 | 1016.7 |
| 20260503081512 | 60 | 327 | 6.1 | 13.9 | 0.02 | 0.11 | 0.11 | 96 | 1016.9 |
| 20260503081022 | 61 | 323 | 5.2 | 7.8 | 0.00 | 0.09 | 0.09 | 96 | 1017.0 |
| 20260503080512 | 61 | 323 | 3.5 | 7.0 | 0.00 | 0.09 | 0.09 | 94 | 1016.6 |
| 20260503072523 | 59 | 312 | 2.6 | 3.5 | 0.01 | 0.09 | 0.09 | 100 | 1016.4 |
| 20260503072022 | 59 | 318 | 2.6 | 3.5 | 0.01 | 0.09 | 0.09 | 100 | 1016.4 |
| 20260503071521 | 59 | 315 | 3.5 | 6.1 | 0.01 | 0.09 | 0.09 | 100 | 1016.3 |
| 20260503071022 | 59 | 311 | 4.3 | 6.1 | 0.01 | 0.09 | 0.09 | 100 | 1016.4 |
| 20260503070521 | 59 | 320 | 5.2 | 10.4 | 0.01 | 0.09 | 0.09 | 100 | 1016.4 |
| 20260503055012 | 67 | 315 | 2.6 | 3.5 | 0.00 | 0.07 | 0.07 | 70 | 1016.5 |
| 20260503054512 | 67 | 323 | 1.7 | 3.5 | 0.00 | 0.07 | 0.07 | 69 | 1016.6 |
| 20260503054012 | 67 | 303 | 0.9 | 1.7 | 0.00 | 0.07 | 0.07 | 69 | 1016.5 |
| 20260503053532 | 66 | 314 | 0.9 | 1.7 | 0.00 | 0.07 | 0.07 | 70 | 1016.5 |
| 20260503053011 | 66 | 280 | 0.9 | 1.7 | 0.00 | 0.07 | 0.07 | 69 | 1016.6 |
| 20260503052512 | 66 | 227 | 0.9 | 1.7 | 0.00 | 0.07 | 0.07 | 69 | 1016.6 |
| 20260503052012 | 67 | 220 | 0.9 | 1.7 | 0.00 | 0.07 | 0.07 | 68 | 1016.5 |
| 20260503051513 | 67 | 9 | 0.9 | 2.6 | 0.00 | 0.07 | 0.07 | 69 | 1016.6 |
| 20260503051012 | 67 | 351 | 2.6 | 4.3 | 0.00 | 0.07 | 0.07 | 67 | 1016.6 |
| 20260503050512 | 67 | 350 | 2.6 | 4.3 | 0.00 | 0.07 | 0.07 | 70 | 1016.8 |
| 20260503050021 | 67 | 11 | 1.7 | 3.5 | 0.00 | 0.07 | 0.07 | 71 | 1016.8 |
| 20260503045513 | 67 | 358 | 4.3 | 6.1 | 0.00 | 0.07 | 0.07 | 69 | 1016.9 |
| 20260503045011 | 67 | 351 | 5.2 | 7.0 | 0.00 | 0.07 | 0.07 | 67 | 1017.0 |
| 20260503044512 | 66 | 355 | 5.2 | 7.0 | 0.00 | 0.07 | 0.07 | 70 | 1017.1 |
| 20260503044023 | 67 | 357 | 4.3 | 6.1 | 0.00 | 0.07 | 0.07 | 70 | 1017.0 |
| 20260503043512 | 66 | 356 | 4.3 | 6.1 | 0.00 | 0.07 | 0.07 | 71 | 1017.1 |
| 20260503043022 | 66 | 346 | 7.8 | 11.3 | 0.00 | 0.07 | 0.07 | 70 | 1017.1 |
| 20260503042512 | 66 | 322 | 7.0 | 11.3 | 0.00 | 0.07 | 0.07 | 70 | 1017.1 |
| 20260503042012 | 66 | 326 | 7.8 | 11.3 | 0.00 | 0.07 | 0.07 | 67 | 1017.0 |
| 20260503041522 | 67 | 327 | 7.8 | 9.6 | 0.00 | 0.07 | 0.07 | 65 | 1017.1 |
| 20260503041012 | 68 | 321 | 7.0 | 9.6 | 0.00 | 0.07 | 0.07 | 61 | 1017.2 |
| 20260503040534 | 68 | 337 | 6.1 | 9.6 | 0.00 | 0.07 | 0.07 | 61 | 1017.1 |
| 20260503040022 | 69 | 344 | 12.2 | 19.1 | 0.00 | 0.07 | 0.07 | 60 | 1017.0 |
| 20260503035512 | 68 | 339 | 9.6 | 19.1 | 0.00 | 0.07 | 0.07 | 61 | 1016.9 |
| 20260503035012 | 69 | 329 | 5.2 | 10.4 | 0.00 | 0.07 | 0.07 | 60 | 1017.1 |
| 20260503034512 | 69 | 314 | 6.1 | 10.4 | 0.00 | 0.07 | 0.07 | 61 | 1017.1 |
| 20260503034022 | 69 | 331 | 7.0 | 11.3 | 0.00 | 0.07 | 0.07 | 59 | 1017.3 |
| 20260503033512 | 70 | 342 | 7.0 | 11.3 | 0.00 | 0.07 | 0.07 | 59 | 1017.4 |
| 20260503033022 | 69 | 336 | 7.8 | 11.3 | 0.00 | 0.07 | 0.07 | 60 | 1017.5 |
| 20260503032512 | 69 | 319 | 7.0 | 10.4 | 0.00 | 0.07 | 0.07 | 62 | 1017.5 |
| 20260503032023 | 68 | 312 | 6.1 | 9.6 | 0.00 | 0.07 | 0.07 | 62 | 1017.6 |
| 20260503031511 | 68 | 305 | 6.1 | 9.6 | 0.00 | 0.07 | 0.07 | 66 | 1017.6 |
| 20260503031012 | 67 | 309 | 6.1 | 8.7 | 0.00 | 0.07 | 0.07 | 67 | 1017.7 |
| 20260503030512 | 66 | 304 | 5.2 | 8.7 | 0.00 | 0.07 | 0.07 | 69 | 1017.9 |
| 20260503030022 | 66 | 286 | 5.2 | 7.8 | 0.00 | 0.07 | 0.07 | 71 | 1017.9 |
| 20260503025511 | 67 | 299 | 5.2 | 7.8 | 0.00 | 0.07 | 0.07 | 68 | 1018.0 |
| 20260503025021 | 66 | 303 | 5.2 | 7.8 | 0.00 | 0.07 | 0.07 | 70 | 1018.1 |
| 20260503024512 | 66 | 297 | 4.3 | 7.8 | 0.00 | 0.07 | 0.07 | 70 | 1018.1 |
| 20260503024021 | 67 | 309 | 4.3 | 7.0 | 0.00 | 0.07 | 0.07 | 69 | 1018.1 |
| 20260503023512 | 66 | 312 | 6.1 | 8.7 | 0.00 | 0.07 | 0.07 | 70 | 1018.3 |
| 20260503023012 | 66 | 295 | 6.1 | 8.7 | 0.00 | 0.07 | 0.07 | 70 | 1018.4 |
| 20260503022522 | 65 | 302 | 4.3 | 7.0 | 0.00 | 0.07 | 0.07 | 70 | 1018.4 |
| 20260503022012 | 66 | 318 | 3.5 | 6.1 | 0.00 | 0.07 | 0.07 | 69 | 1018.7 |
| 20260503021522 | 66 | 351 | 2.6 | 4.3 | 0.00 | 0.07 | 0.07 | 69 | 1018.8 |
| 20260503021022 | 65 | 354 | 4.3 | 7.0 | 0.00 | 0.07 | 0.07 | 75 | 1018.9 |
| 20260503020523 | 64 | 322 | 4.3 | 7.0 | 0.00 | 0.07 | 0.07 | 74 | 1019.0 |
| 20260503020033 | 64 | 313 | 4.3 | 7.0 | 0.00 | 0.07 | 0.07 | 74 | 1019.1 |
| 20260503015522 | 64 | 307 | 3.5 | 6.1 | 0.00 | 0.07 | 0.07 | 74 | 1019.2 |
| 20260503015032 | 64 | 321 | 3.5 | 6.1 | 0.00 | 0.07 | 0.07 | 71 | 1019.4 |
| 20260503014531 | 64 | 333 | 1.7 | 2.6 | 0.00 | 0.07 | 0.07 | 73 | 1019.3 |
| 20260503014012 | 64 | 28 | 1.7 | 2.6 | 0.00 | 0.07 | 0.07 | 72 | 1019.4 |
| 20260503013522 | 64 | 51 | 1.7 | 2.6 | 0.00 | 0.07 | 0.07 | 74 | 1019.4 |
| 20260503013022 | 64 | 79 | 1.7 | 3.5 | 0.00 | 0.07 | 0.07 | 74 | 1019.5 |
| 20260503012511 | 62 | 93 | 2.6 | 4.3 | 0.00 | 0.07 | 0.07 | 78 | 1019.6 |
| 20260503012023 | 62 | 333 | 2.6 | 4.3 | 0.00 | 0.07 | 0.07 | 80 | 1019.7 |
| 20260503011511 | 61 | 307 | 2.6 | 4.3 | 0.00 | 0.07 | 0.07 | 81 | 1019.8 |
| 20260503011013 | 61 | 89 | 2.6 | 4.3 | 0.00 | 0.07 | 0.07 | 83 | 1019.9 |
| 20260503010512 | 60 | 115 | 2.6 | 4.3 | 0.00 | 0.07 | 0.07 | 84 | 1019.9 |
| 20260503010012 | 60 | 133 | 2.6 | 5.2 | 0.00 | 0.07 | 0.07 | 86 | 1020.0 |
| 20260503005512 | 60 | 137 | 2.6 | 5.2 | 0.00 | 0.07 | 0.07 | 86 | 1020.1 |
| 20260503005032 | 59 | 122 | 2.6 | 5.2 | 0.00 | 0.07 | 0.07 | 86 | 1020.1 |
| 20260503004521 | 59 | 71 | 2.6 | 3.5 | 0.00 | 0.07 | 0.07 | 87 | 1020.1 |
| 20260503004023 | 59 | 189 | 2.6 | 3.5 | 0.00 | 0.07 | 0.07 | 88 | 1020.2 |
| 20260503003512 | 59 | 215 | 1.7 | 3.5 | 0.00 | 0.07 | 0.07 | 88 | 1020.2 |
| 20260503003012 | 59 | 130 | 1.7 | 3.5 | 0.00 | 0.07 | 0.07 | 88 | 1020.2 |
| 20260503002522 | 58 | 94 | 2.6 | 3.5 | 0.00 | 0.07 | 0.07 | 88 | 1020.4 |
| 20260503002013 | 59 | 101 | 2.6 | 3.5 | 0.00 | 0.07 | 0.07 | 87 | 1020.4 |
| 20260503001512 | 59 | 132 | 2.6 | 3.5 | 0.00 | 0.07 | 0.07 | 88 | 1020.4 |
| 20260503001022 | 59 | 122 | 1.7 | 3.5 | 0.00 | 0.07 | 0.07 | 88 | 1020.3 |